TimeCST,TemperatureF,Dew PointF,Humidity,Sea Level PressureIn,VisibilityMPH,Wind Direction,Wind SpeedMPH,Gust SpeedMPH,PrecipitationIn,Events,Conditions,WindDirDegrees,DateUTC
12:57 AM,43.0,37.0,80,30.18,10.0,NE,6.9,-,N/A,,Clear,40,2012-11-04 05:57:00
2:57 AM,43.0,37.0,80,30.19,10.0,ENE,4.6,-,N/A,,Clear,70,2012-11-04 08:57:00
3:57 AM,42.8,37.4,81,30.20,2.5,SE,3.5,-,N/A,,Haze,140,2012-11-04 09:57:00
3:59 AM,42.1,37.0,82,30.20,2.0,SE,3.5,-,N/A,,Haze,130,2012-11-04 09:59:00
4:09 AM,42.8,37.4,81,30.20,9.0,Calm,Calm,-,N/A,,Clear,0,2012-11-04 10:09:00
4:57 AM,39.9,36.0,86,30.21,9.0,Calm,Calm,-,N/A,,Clear,0,2012-11-04 10:57:00
7:57 AM,41.0,39.0,93,30.22,5.0,NNE,4.6,-,N/A,,Clear,20,2012-11-04 13:57:00
8:57 AM,46.0,41.0,83,30.22,8.0,ENE,4.6,-,N/A,,Clear,70,2012-11-04 14:57:00
9:57 AM,52.0,39.9,63,30.22,10.0,ESE,5.8,-,N/A,,Clear,120,2012-11-04 15:57:00
10:57 AM,55.9,37.9,51,30.22,9.0,ENE,5.8,-,N/A,,Clear,70,2012-11-04 16:57:00
11:57 AM,61.0,39.0,44,30.18,10.0,Calm,Calm,-,N/A,,Clear,0,2012-11-04 17:57:00
12:02 PM,60.8,37.4,42,30.18,1.0,East,4.6,-,N/A,,Haze,100,2012-11-04 18:02:00
12:10 PM,60.8,37.4,42,30.17,8.0,ENE,4.6,-,N/A,,Clear,70,2012-11-04 18:10:00
12:57 PM,62.1,35.1,37,30.15,10.0,ESE,4.6,-,N/A,,Clear,120,2012-11-04 18:57:00
1:57 PM,62.6,33.8,34,30.13,2.0,Calm,Calm,-,N/A,,Haze,0,2012-11-04 19:57:00
1:59 PM,62.6,33.8,34,30.13,1.8,Variable,3.5,-,N/A,,Haze,0,2012-11-04 19:59:00
2:01 PM,63.0,34.0,34,30.13,1.8,Calm,Calm,-,N/A,,Haze,0,2012-11-04 20:01:00
2:04 PM,62.6,33.8,34,30.13,10.0,North,4.6,-,N/A,,Clear,10,2012-11-04 20:04:00
2:57 PM,64.0,33.1,31,30.11,10.0,Calm,Calm,-,N/A,,Clear,0,2012-11-04 20:57:00
3:57 PM,64.0,32.0,30,30.10,10.0,Calm,Calm,-,N/A,,Clear,0,2012-11-04 21:57:00
4:43 PM,62.6,35.6,37,30.09,2.0,ESE,3.5,-,N/A,,Clear,110,2012-11-04 22:43:00
4:46 PM,62.6,35.6,37,30.09,1.5,ESE,3.5,-,N/A,,Clear,110,2012-11-04 22:46:00
4:57 PM,62.6,35.6,37,30.09,3.0,ESE,4.6,-,N/A,,Clear,110,2012-11-04 22:57:00
4:59 PM,61.0,35.1,38,30.09,7.0,ESE,4.6,-,N/A,,Clear,120,2012-11-04 22:59:00
5:57 PM,57.0,37.9,49,30.10,10.0,East,6.9,-,N/A,,Clear,100,2012-11-04 23:57:00
8:57 PM,51.1,42.1,71,30.11,10.0,ESE,5.8,-,N/A,,Clear,110,2012-11-05 02:57:00
9:57 PM,48.0,39.0,71,30.10,10.0,SE,3.5,-,N/A,,Clear,140,2012-11-05 03:57:00
10:57 PM,50.0,39.0,66,30.09,10.0,SSE,5.8,-,N/A,,Clear,150,2012-11-05 04:57:00